Weather in Fort Saint John

Canada     56°14′44″N   120°50′46″W
temp.,
°C
wind,
m/s
gust,
m/s
humid.,
%
clouds,
%
prec.,
mm/h
press.,
hPa
HPBL,
m
22 june, tue
tue2223:00+16wsw2269100 0.0 100116
02:00+15wsw226213 0.0 100111
05:00+12wnw2271100 0.0 100115
08:00+17nw247182 0.0 1001294
11:00+17nnw4666100 0.0 1003821
14:00+21ene115074 0.0 10011046
17:00+12n9159099 1.6 1005660
20:00+14nw39794 0.4 1007676
23 june, wed
wed2323:00+9nw34894 0.4 101064
02:00+7w22935 0.0 101315
05:00+7w11925 0.0 101310
08:00+12wsw12777 0.0 1012307
11:00+16wsw1161100 0.0 1011852
14:00+18se1156100 0.0 10091052
17:00+19ene2157100 0.0 1009844
20:00+17ese347772 0.0 100996
24 june, thu
thu2423:00+12sse22845 0.0 101016
02:00+10ssw2286100 0.0 101113
05:00+9ssw2288100 0.0 101223
08:00+14ssw2575100 0.0 1012331
11:00+19wsw4558100 0.0 1011895
14:00+22wsw4750100 0.0 10101785
17:00+22w51056100 0.0 1009490
20:00+20wsw51162100 0.0 1009283
25 june, fri
fri2523:00+16w2266100 0.0 101034
02:00+14sw2271100 0.0 101214
05:00+12sw22803 0.0 101319
08:00+18sw25710 0.0 1014275
11:00+26w49540 0.0 10131654
14:00+28wnw710495 0.0 10131424
17:00+28wnw611500 0.0 1013889
20:00+24w47621 0.0 1013122
26 june, sat
sat2623:00+18n11775 0.0 101611
02:00+16nnw11839 0.0 101811
05:00+15ssw11849 0.0 101911
08:00+20s12735 0.0 1019204
11:00+25se12595 0.0 1018617
14:00+28ne21552 0.0 1017744
17:00+28ne235699 0.0 1016509
20:00+25ese2270100 0.0 101513